Location: The Saddle
(36.8333°N, 80.3417°W)
Time: 17:17:13
(UTC-05:00)

Altair - All Passes

Search period start: 30 January 2023 00:00
Search period end: 09 February 2023 00:00
Orbit: 1501 x 1683 km, 47.2° (Epoch: 30 January)

Date Brightness Start Highest point End Pass type
(mag) Time Alt. Az. Time Alt. Az. Time Alt. Az.
30 Jan - 01:56:57 10° WNW 02:07:06 68° NNE 02:17:12 10° ESE visible
30 Jan - 04:02:11 10° WNW 04:11:50 50° SW 04:21:21 10° SSE visible
30 Jan - 06:13:42 10° WSW 06:14:55 10° WSW 06:16:07 10° SW visible
30 Jan - 17:18:43 10° SE 17:21:12 11° ESE 17:23:42 10° ESE daylight
30 Jan - 19:15:03 10° SSW 19:24:14 53° SE 19:33:46 10° ENE visible
30 Jan - 21:19:17 10° WSW 21:28:59 65° NNW 21:39:03 10° ENE visible
30 Jan - 23:25:51 10° WNW 23:35:23 46° N 23:45:04 10° ENE visible
31 Jan - 01:31:43 10° WNW 01:41:48 65° NNE 01:51:53 10° ESE visible
31 Jan - 03:36:53 10° WNW 03:46:39 54° SW 03:56:20 10° SSE visible
31 Jan - 05:46:19 10° W 05:49:51 12° WSW 05:53:22 10° SW visible
31 Jan - 18:50:05 10° SSW 18:59:05 49° SE 19:08:27 10° ENE visible
31 Jan - 20:54:00 10° WSW 21:03:42 68° NNW 21:13:47 10° ENE visible
31 Jan - 23:00:31 10° WNW 23:10:01 46° N 23:19:43 10° ENE visible
01 Feb - 01:06:28 10° WNW 01:16:29 62° NNE 01:26:33 10° ESE night (unlit)
01 Feb - 03:11:37 10° WNW 03:21:29 59° SW 03:31:17 10° SSE visible
01 Feb - 05:20:01 10° W 05:24:47 14° WSW 05:29:32 10° SSW visible
01 Feb - 18:25:08 10° SSW 18:33:58 44° SE 18:43:07 10° ENE visible
01 Feb - 20:28:46 10° WSW 20:38:26 72° NNW 20:48:31 10° ENE visible
01 Feb - 22:35:11 10° WNW 22:44:39 47° N 22:54:20 10° ENE visible
02 Feb - 00:41:12 10° WNW 00:51:10 60° NNE 01:01:13 10° E night (unlit)
02 Feb - 02:46:20 10° WNW 02:56:18 63° SW 03:06:13 10° SE visible
02 Feb - 04:54:03 10° W 04:59:43 17° WSW 05:05:21 10° SSW visible
02 Feb - 18:00:14 10° SSW 18:08:51 41° SE 18:17:46 10° ENE visible
02 Feb - 20:03:31 10° WSW 20:13:10 76° NNW 20:23:16 10° ENE visible
02 Feb - 22:09:51 10° WNW 22:19:17 47° N 22:28:58 10° ENE visible
03 Feb - 00:15:57 10° WNW 00:25:51 57° NNE 00:35:51 10° E visible
03 Feb - 02:21:04 10° WNW 02:31:07 68° SW 02:41:07 10° SE visible
03 Feb - 04:28:16 10° W 04:34:38 19° WSW 04:41:00 10° SSW visible
03 Feb - 17:35:23 10° SSW 17:43:45 37° SE 17:52:23 10° ENE daylight
03 Feb - 19:38:18 10° WSW 19:47:56 80° NNW 19:58:00 10° ENE visible
03 Feb - 21:44:30 10° W 21:53:55 48° N 22:03:37 10° ENE visible
03 Feb - 23:50:42 10° WNW 00:00:31 55° NNE 00:10:28 10° E visible
04 Feb - 01:55:49 10° WNW 02:05:54 73° SW 02:15:59 10° SE night (unlit)
04 Feb - 04:02:34 10° W 04:09:33 21° SW 04:16:31 10° S visible
04 Feb - 17:10:34 10° S 17:18:39 33° SE 17:27:00 10° ENE daylight
04 Feb - 19:13:06 10° WSW 19:22:42 84° NNW 19:32:44 10° ENE visible
04 Feb - 21:19:10 10° W 21:28:34 48° N 21:38:16 10° ENE visible
04 Feb - 23:25:26 10° WNW 23:35:11 53° NNE 23:45:05 10° E visible
05 Feb - 01:30:34 10° WNW 01:40:41 78° SW 01:50:50 10° SE night (unlit)
05 Feb - 03:36:59 10° WNW 03:44:27 24° SW 03:51:55 10° S visible
05 Feb - 16:45:47 10° S 16:53:34 30° SE 17:01:34 10° ENE daylight
05 Feb - 18:47:55 10° SW 18:57:29 89° NNW 19:07:28 10° ENE visible
05 Feb - 20:53:50 10° W 21:03:13 49° N 21:12:56 10° ENE visible
05 Feb - 23:00:10 10° WNW 23:09:50 52° NNE 23:19:42 10° E visible
06 Feb - 01:05:20 10° WNW 01:15:28 83° SW 01:25:39 10° SE night (unlit)
06 Feb - 03:11:28 10° WNW 03:19:22 27° SW 03:27:14 10° S night (unlit)
06 Feb - 16:21:04 10° S 16:28:29 27° SE 16:36:07 10° ENE daylight
06 Feb - 18:22:45 10° SW 18:32:16 86° SE 18:42:13 10° ENE visible
06 Feb - 20:28:31 10° W 20:37:53 50° NNW 20:47:37 10° ENE visible
06 Feb - 22:34:54 10° WNW 22:44:30 50° NNE 22:54:18 10° E visible
07 Feb - 00:40:06 10° WNW 00:50:14 88° SW 01:00:26 10° SE night (unlit)
07 Feb - 02:46:00 10° WNW 02:54:15 30° SW 03:02:30 10° S night (unlit)
07 Feb - 15:56:25 10° S 16:03:25 24° SE 16:10:36 10° ENE daylight
07 Feb - 17:57:37 10° SW 18:07:04 81° SE 18:16:57 10° ENE visible
07 Feb - 20:03:11 10° W 20:12:33 52° NNW 20:22:17 10° ENE visible
07 Feb - 22:09:37 10° WNW 22:19:09 49° N 22:28:54 10° E visible
08 Feb - 00:14:52 10° WNW 00:24:59 87° NNE 00:35:13 10° SE visible
08 Feb - 02:20:34 10° WNW 02:29:07 33° SW 02:37:43 10° S night (unlit)
08 Feb - 15:31:51 10° S 15:38:22 21° SE 15:45:01 10° E daylight
08 Feb - 17:32:30 10° SW 17:41:53 76° SE 17:51:41 10° ENE daylight
08 Feb - 19:37:52 10° W 19:47:14 53° NNW 19:56:58 10° ENE visible
08 Feb - 21:44:20 10° WNW 21:53:48 48° N 22:03:30 10° E visible
